Regional Weather Roundup
Issued by NWS

Home | Current Version | Previous Version | Text Only | Print | Product List | Glossary On
Versions: 1 2 3 4 5 6 7 8 9 10 11 12 13 14 15 16 17 18 19 20 21 22 23 24 25 26 27 28 29 30 31 32 33 34 35 36 37 38 39 40 41 42 43 44 45 46 47 48 49 50
000
ASUS42 KTBW 070417
RWRFL
FLORIDA REGIONAL WEATHER ROUNDUP
NATIONAL WEATHER SERVICE TAMPA BAY RUSKIN FL
1200 AM EDT TUE JUL 07 2015

NOTE: "FAIR" INDICATES FEW OR NO CLOUDS BELOW 12,000 FEET WITH NO
SIGNIFICANT WEATHER AND/OR OBSTRUCTIONS TO VISIBILITY.


FLZ001>010-012>015-112-114-115-070500-
PANHANDLE FLORIDA

CITY           SKY/WX    TMP DP  RH WIND       PRES   REMARKS
PENSACOLA      CLEAR     79  66  64 SW5       30.11R
PENSACOLA NAS  CLEAR     73  68  84 CALM      30.11R
MILTON NAS     CLEAR     75  70  84 W5        30.12
CRESTVIEW      CLEAR     75  73  93 CALM      30.13R
DUKE FIELD     CLEAR     79  70  75 W3        30.11S
VALPARAISO     CLEAR     78  72  81 W3        30.11R
MARY ESTHER    CLEAR     81  71  72 CALM      30.10R
TRI COUNTY     FAIR      75  74  96 CALM      30.12S
PANAMA CITY    FAIR      76  74  93 CALM      30.11S
TYNDALL AFB    CLEAR     76  73  92 CALM      30.11S
APALACHICOLA   CLEAR     79  73  82 CALM      30.11F

STATION/POSITION SKY/WX   TEMP    WIND        PRES    WAVE   SWELL
                          AIR SEA DIR/SP/G            HT/PER HT/PER
                          (F)     (DEG/KT/KT) (MB)    (FT/S) (FT/S)
30.1N   87.6W              84 85  180/  8/  8 1019.2R   1/ 6   2/ 6
29.2N   88.2W              84 87  140/ 10/ 14 1019.9R   2/ 7   2/ 7
28.8N   86.0W              83 85   CALM  /  2 1020.4    2/ 5   2/ 5
PANAMA CITY BEAC           82 82  240/  3/  4 1019.5R
CAPE SAN BLAS    NOT AVBL
TOWER C                    81     220/  5/  6 1019.8F
28.5N   84.5W              83 85   60/  4/  4 1020.3F   2/ 5   2/ 5

$$
FLZ011-016>038-118-127-128-134-139-239-070500-
NORTH FLORIDA

CITY           SKY/WX    TMP DP  RH WIND       PRES   REMARKS
MARIANNA       CLEAR     77  74  90 CALM      30.11S
TALLAHASSEE    CLEAR     78  74  87 CALM      30.12S
PERRY          PTCLDY    75  75 100 CALM      30.13S
CROSS CITY       N/A     77  72  84 CALM      30.12S
LAKE CITY      FAIR      72  70  94 CALM      30.14S
GAINESVILLE    CLOUDY    73  71  93 S5        30.13F
MAYPORT NAS    CLOUDY    76  71  85 SW6       30.13S
JACKSONVILLE   CLOUDY    74  72  93 CALM      30.12F
JAX NAS        MOCLDY    79  72  79 S8        30.13F
JAX CRAIG      CLOUDY    75  71  87 S3        30.13S
JAX CECIL      PTCLDY    72  72 100 CALM      30.14F
FERNANDINA BEA FAIR      79  72  78 CALM      30.11F
ST AUGUSTINE   CLOUDY    73  70  90 SW5       30.14F

STATION/POSITION SKY/WX   TEMP    WIND        PRES    WAVE   SWELL
                          AIR SEA DIR/SP/G            HT/PER HT/PER
                          (F)     (DEG/KT/KT) (MB)    (FT/S) (FT/S)
SHELL POINT                82      CALM  /  1   N/A
KEATON BEACH               80      CALM  /  1 1020.0F
CEDAR KEY                  83      80/  3/  4 1020.4F
FERNANDINA                 77 82   CALM  /  1 1020.0R
30.7N   81.3W                 78                N/A     2/ 8
MAYPORT                    77 80  180/  5/  8 1020.5F
31.4N   80.9W              78 79  220/ 10/ 12 1019.8F   2/ 8   2/ 8
ST AUGUSTINE               72 71  220/  3/  4 1021.3F

$$
FLZ040-043>046-052-053-057-058-063-144-070500-
INTERIOR CENTRAL FLORIDA

CITY           SKY/WX    TMP DP  RH WIND       PRES   REMARKS
OCALA          CLOUDY    73  70  88 CALM      30.14F
THE VILLAGES     N/A    N/A N/A N/A SE3       30.05S
LEESBURG       CLOUDY    76  72  87 S7        30.15S
SANFORD        CLOUDY    73  69  87 SW5       30.13S
ORLANDO EXEC   CLOUDY    75  71  87 CALM      30.14S
ORLANDO INTL   CLOUDY    75  71  87 CALM      30.13F
WINTER HAVEN   CLOUDY    76  71  85 CALM      30.15F
LAKELAND       CLOUDY    73  68  83 MISG      30.14S
OKEECHOBEE     CLOUDY    70  68  94 CALM      30.14S

$$
FLZ041-047-054-059-064-141-147-070500-
EAST CENTRAL FLORIDA

CITY           SKY/WX    TMP DP  RH WIND       PRES   REMARKS
DAYTONA BEACH  CLOUDY    71  69  93 SW3       30.14S
DELAND           N/A     72  70  94 CALM      30.15F
JFK SPACE CTR  PTCLDY    72  70  93 SE2       30.12R FOG
CAPE CANAVERAL PTCLDY    72  69  91 S2        30.13R
PATRICK AFB    PTCLDY    75  72  91 S2        30.14R
MELBOURNE      PTCLDY    72  70  93 S6        30.14R
VERO BEACH     MOCLDY    72  68  87 CALM      30.13S
FT PIERCE      MOCLDY    72  69  90 CALM      30.13S
STUART         MOCLDY    77  70  78 NW3       30.14S

STATION/POSITION SKY/WX   TEMP    WIND        PRES    WAVE   SWELL
                          AIR SEA DIR/SP/G            HT/PER HT/PER
                          (F)     (DEG/KT/KT) (MB)    (FT/S) (FT/S)
28.5N   80.2W              80 84   40/  2/  2 1020.0F
28.9N   78.5W              82 83  140/  6/  8 1021.4F
TRIDENT PIER               73 77   20/  2/  5 1020.3F
28.4N   80.5W                 79                N/A     2/ 8
27.5N   80.2W                 80                N/A     2/ 8

$$
FLZ050-056-061-142-242-148-248-149-249-151-251-155-255-
160-260-070500-
WEST CENTRAL FLORIDA

CITY           SKY/WX    TMP DP  RH WIND       PRES   REMARKS
CRYSTAL RIVER  FAIR      75  70  83 CALM      30.13F
INVERNESS      FAIR     N/A N/A N/A S3        30.14F
BROOKSVILLE    CLOUDY    75  70  84 SE3       30.15F
ZEPHYRHILLS    FAIR      72  72 100 CALM      30.14F
CLEARWATER     CLOUDY    78  73  84 SE7       30.13S
TAMPA INTL     CLOUDY    79  69  71 E3        30.14S
TAMPA EXEC     CLOUDY    77  70  78 CALM      30.14F
PLANT CITY     CLOUDY    77  72  83 CALM      30.16S
MACDILL AFB      N/A     78  74  90 E8        30.13S
PETER O KNIGHT CLOUDY    79  72  78 E3        30.14F
ST PETERSBURG  CLOUDY    81  72  74 SE12      30.12S
SARASOTA       CLOUDY    77  70  79 SE6       30.12S
VENICE         FAIR      77  72  83 E8        30.14S

STATION/POSITION SKY/WX   TEMP    WIND        PRES    WAVE   SWELL
                          AIR SEA DIR/SP/G            HT/PER HT/PER
                          (F)     (DEG/KT/KT) (MB)    (FT/S) (FT/S)
CEDAR KEY                  83      80/  3/  4 1020.4F
28.5N   84.5W              83 85   60/  4/  4 1020.3F   2/ 5   2/ 5
27.3N   84.2W                 87                N/A     1/ 5
CLEARWATER BEACH NOT AVBL
MIDDLE TAMPA BAY                  150/ 11/ 14 1020.4F
VENICE                     79 90   90/  3/  4 1020.1R

$$
FLZ066-069-070-075>078-162-262-165-265-070500-
SOUTHWEST FLORIDA AND KEYS

CITY           SKY/WX    TMP DP  RH WIND       PRES   REMARKS
PUNTA GORDA    MOCLDY    74  73  97 E3        30.15S
FT MYERS       PTCLDY    75  72  90 CALM      30.13S
SOUTHWEST INTL PTCLDY    74  70  87 NE6       30.13F
MARCO ISLAND   MOCLDY    73  66  78 E6        30.13S
MARATHON       PTCLDY    85  76  74 E7        30.12S
KEY WEST NAS   CLEAR     84  74  71 E9        30.12S
KEY WEST INTL  CLEAR     84  76  76 E9        30.12F

STATION/POSITION SKY/WX   TEMP    WIND        PRES    WAVE   SWELL
                          AIR SEA DIR/SP/G            HT/PER HT/PER
                          (F)     (DEG/KT/KT) (MB)    (FT/S) (FT/S)
VENICE                     79 90   90/  3/  4 1020.1R
NAPLES                        89              1020.8F
26.0N   85.6W              85 86   70/ 12/ 14 1019.7F   3/ 5   2/ 5
DRY TORTUGAS               84     120/  9/ 10 1019.8R
NW FL BAY                  82      60/  9/ 10 1020.5
SAND KEY                   84      80/ 13/ 15 1019.9R
SOMBRERO KEY               84      80/ 12/ 13 1020.3F
LONG KEY                   85 87   90/ 10/ 12 1020.6F
MOLASSES REEF              84 85   70/  8/  9 1019.8F

$$
FLZ067-068-071>074-168-172>174-070500-
SOUTHEAST FLORIDA

CITY           SKY/WX    TMP DP  RH WIND       PRES   REMARKS
W PALM BEACH   PTCLDY    82  74  76 NE6       30.13F
FT LAUDER-EXEC CLEAR     84  74  71 E10       30.12F
FT LAUDERDALE  PTCLDY    84  76  76 E13       30.12F
POMPANO BEACH  CLEAR     84  74  71 E8        30.12F
PEMBROKE PINES CLEAR     83  74  74 E8        30.13F
OPA LOCKA      CLEAR     83  75  77 E6        30.13F
MIAMI          MOCLDY    83  74  74 E7        30.13F
WEST KENDALL   CLEAR     78  72  81 CALM      30.13F
HOMESTEAD      CLEAR     78  72  82 NW3       30.12F

STATION/POSITION SKY/WX   TEMP    WIND        PRES    WAVE   SWELL
                          AIR SEA DIR/SP/G            HT/PER HT/PER
                          (F)     (DEG/KT/KT) (MB)    (FT/S) (FT/S)
PORT EVERGLADES            85      70/  7/ 11 1020.4F
VIRGINIA KEY               84 88   80/  8/ 11 1020.1F
LAKE WORTH                 83 86   80/  7/  9 1020.4S
SETTLEMENT POINT           82     180/  3/  3 1021.6F

$$




USA.gov is the U.S. government's official web portal to all federal, state and local government web resources and services.